,,,PA_Meas_PMT16A,,PR_Meas_QMR101_102,,RH_Meas_QMH101,,SR_Meas_QMS101,,TA_Meas_QMH101,,GenWind,,GenWind,
date,time,status,PA,status,PR,status,RH,status,SR,status,TA,status,DirAvg,status,SpdAvg,
2012-08-11, 14:50:05,VALID,1003.76,VALID,0,VALID,72.9168,VALID,135.142,VALID,28.7119,VALID,160,VALID,1.18281,
2012-08-11, 14:51:05,VALID,1003.76,VALID,0,VALID,72.1768,VALID,139.462,VALID,28.6534,VALID,178,VALID,0.930859,
2012-08-11, 14:52:05,VALID,1003.75,VALID,0,VALID,71.8335,VALID,140.929,VALID,28.6339,VALID,215,VALID,0.801562,
2012-08-11, 14:53:05,VALID,1003.72,VALID,0,VALID,72.2531,VALID,142.396,VALID,28.5732,VALID,185,VALID,0.702344,
2012-08-11, 14:54:05,VALID,1003.7,VALID,0,VALID,73.3059,VALID,145.575,VALID,28.5949,VALID,188,VALID,0.734375,
2012-08-11, 14:55:05,VALID,1003.68,VALID,0,VALID,73.8857,VALID,147.776,VALID,28.6166,VALID,178,VALID,0.790625,
2012-08-11, 14:56:05,VALID,1003.62,VALID,0,VALID,74.0841,VALID,149.813,VALID,28.6361,VALID,179,VALID,0.683984,
2012-08-11, 14:57:05,VALID,1003.63,VALID,0,VALID,73.756,VALID,151.77,VALID,28.6144,VALID,204,VALID,0.960547,
2012-08-11, 14:58:05,VALID,1003.6,VALID,0,VALID,73.4356,VALID,152.259,VALID,28.6144,VALID,195,VALID,1.21016,
2012-08-11, 14:59:05,VALID,1003.6,VALID,0,VALID,74.7401,VALID,152.829,VALID,28.6144,VALID,160,VALID,0.585547,
2012-08-11, 15:00:05,VALID,1003.56,VALID,0,VALID,72.0395,VALID,154.296,VALID,28.5754,VALID,174,VALID,1.06992,
2012-08-11, 15:01:05,VALID,1003.57,VALID,0,VALID,72.2379,VALID,156.416,VALID,28.5754,VALID,170,VALID,0.825781,
2012-08-11, 15:02:05,VALID,1003.55,VALID,0,VALID,75.0606,VALID,158.942,VALID,28.5949,VALID,180,VALID,0.908594,
2012-08-11, 15:03:05,VALID,1003.57,VALID,0,VALID,72.5659,VALID,158.779,VALID,28.5559,VALID,151,VALID,1.23594,
2012-08-11, 15:04:05,VALID,1003.55,VALID,0,VALID,73.3822,VALID,157.801,VALID,28.4974,VALID,169,VALID,0.8875,
2012-08-11, 15:05:05,VALID,1003.58,VALID,0,VALID,77.4102,VALID,159.024,VALID,28.4194,VALID,83,VALID,0.7625,
2012-08-11, 15:06:05,VALID,1003.53,VALID,0,VALID,78.196,VALID,158.209,VALID,28.322,VALID,74,VALID,0.639453,
2012-08-11, 15:07:05,VALID,1003.53,VALID,0,VALID,78.875,VALID,154.378,VALID,28.1834,VALID,26,VALID,0.719922,
2012-08-11, 15:08:05,VALID,1003.56,VALID,0,VALID,82.3309,VALID,149.161,VALID,27.93,VALID,27,VALID,0.705078,
2012-08-11, 15:09:05,VALID,1003.53,VALID,0,VALID,82.4072,VALID,144.597,VALID,27.7351,VALID,44,VALID,0.775391,
2012-08-11, 15:10:05,VALID,1003.51,VALID,0,VALID,84.7721,VALID,142.233,VALID,27.5813,VALID,38,VALID,0.637109,
2012-08-11, 15:11:05,VALID,1003.47,VALID,0,VALID,85.8402,VALID,142.396,VALID,27.4818,VALID,16,VALID,0.555078,
2012-08-11, 15:12:05,VALID,1003.45,VALID,0,VALID,83.8567,VALID,144.841,VALID,27.3259,VALID,13,VALID,1.51328,
2012-08-11, 15:13:05,VALID,1003.44,VALID,0,VALID,84.8713,VALID,148.998,VALID,27.1895,VALID,12,VALID,1.28672,
2012-08-11, 15:14:05,VALID,1003.4,VALID,0.5,VALID,86.5344,VALID,154.133,VALID,27.1116,VALID,29,VALID,0.590234,
2012-08-11, 15:15:05,VALID,1003.35,VALID,0,VALID,84.9018,VALID,159.513,VALID,27.0336,VALID,70,VALID,0.359766,
2012-08-11, 15:16:05,VALID,1003.32,VALID,0,VALID,85.6876,VALID,165.219,VALID,27.0316,VALID,70,VALID,0,
2012-08-11, 15:17:05,VALID,1003.28,VALID,0,VALID,82.4911,VALID,171.495,VALID,27.0531,VALID,75,VALID,0.236719,
2012-08-11, 15:18:05,VALID,1003.29,VALID,0,VALID,81.9113,VALID,178.015,VALID,27.0706,VALID,76,VALID,0.373828,
2012-08-11, 15:19:05,VALID,1003.3,VALID,0,VALID,82.5597,VALID,183.803,VALID,27.1895,VALID,76,VALID,0.172656,
2012-08-11, 15:20:05,VALID,1003.31,VALID,0,VALID,83.2997,VALID,189.345,VALID,27.2869,VALID,76,VALID,0.0101562,
2012-08-11, 15:21:05,VALID,1003.34,VALID,0,VALID,83.5896,VALID,193.991,VALID,27.3044,VALID,76,VALID,0,
2012-08-11, 15:22:05,VALID,1003.36,VALID,0,VALID,85.6571,VALID,197.578,VALID,27.4233,VALID,5,VALID,0.817969,
2012-08-11, 15:23:05,VALID,1003.38,VALID,0,VALID,86.275,VALID,200.023,VALID,27.4233,VALID,346,VALID,0.694922,
2012-08-11, 15:24:05,VALID,1003.41,VALID,0,VALID,86.2674,VALID,201.246,VALID,27.4018,VALID,356,VALID,1.25742,
2012-08-11, 15:25:05,VALID,1003.47,VALID,0,VALID,86.8777,VALID,201.735,VALID,27.4039,VALID,343,VALID,0.669141,
2012-08-11, 15:26:05,VALID,1003.48,VALID,0,VALID,87.1828,VALID,200.593,VALID,27.3649,VALID,340,VALID,0.469922,
2012-08-11, 15:27:05,VALID,1003.52,VALID,0,VALID,87.5185,VALID,196.926,VALID,27.3823,VALID,313,VALID,0.629687,
2012-08-11, 15:28:05,VALID,1003.56,VALID,0,VALID,85.7105,VALID,192.443,VALID,27.3433,VALID,289,VALID,1.72812,
2012-08-11, 15:29:05,VALID,1003.58,VALID,0,VALID,85.802,VALID,189.59,VALID,27.2285,VALID,285,VALID,0.901172,
2012-08-11, 15:30:05,VALID,1003.59,VALID,0,VALID,85.329,VALID,186.981,VALID,27.17,VALID,291,VALID,2.11367,
2012-08-11, 15:31:05,VALID,1003.61,VALID,0,VALID,85.0162,VALID,183.151,VALID,27.0336,VALID,292,VALID,2.29102,
2012-08-11, 15:32:05,VALID,1003.64,VALID,0,VALID,85.3061,VALID,178.831,VALID,26.9147,VALID,288,VALID,1.41953,
2012-08-11, 15:33:05,VALID,1003.67,VALID,0,VALID,84.528,VALID,173.614,VALID,26.7783,VALID,285,VALID,1.87695,
2012-08-11, 15:34:05,VALID,1003.68,VALID,0,VALID,87.3583,VALID,166.849,VALID,26.7589,VALID,341,VALID,0.744141,
2012-08-11, 15:35:05,VALID,1003.74,VALID,0,VALID,85.8249,VALID,158.942,VALID,26.7414,VALID,349,VALID,0.858594,
2012-08-11, 15:36:05,VALID,1003.74,VALID,0,VALID,83.9558,VALID,151.525,VALID,26.6635,VALID,348,VALID,1.59883,
2012-08-11, 15:37:05,VALID,1003.77,VALID,0,VALID,84.0779,VALID,145.004,VALID,26.646,VALID,293,VALID,1.03906,
2012-08-11, 15:38:05,VALID,1003.8,VALID,0,VALID,84.3296,VALID,140.195,VALID,26.6245,VALID,339,VALID,0.867578,
2012-08-11, 15:39:05,VALID,1003.83,VALID,0,VALID,85.001,VALID,137.587,VALID,26.6245,VALID,352,VALID,1.40664,
2012-08-11, 15:40:05,VALID,1003.85,VALID,0,VALID,84.5585,VALID,137.506,VALID,26.5661,VALID,337,VALID,1.07305,
2012-08-11, 15:41:05,VALID,1003.83,VALID,0,VALID,85.7944,VALID,139.462,VALID,26.5855,VALID,354,VALID,1.0625,
2012-08-11, 15:42:05,VALID,1003.82,VALID,0,VALID,84.4975,VALID,143.13,VALID,26.5855,VALID,348,VALID,1.03672,
2012-08-11, 15:43:05,VALID,1003.84,VALID,0,VALID,85.1841,VALID,145.819,VALID,26.605,VALID,340,VALID,0.841406,
2012-08-11, 15:44:05,VALID,1003.86,VALID,0,VALID,86.2826,VALID,149.569,VALID,26.644,VALID,350,VALID,0.520312,
2012-08-11, 15:45:05,VALID,1003.87,VALID,0,VALID,83.643,VALID,154.133,VALID,26.685,VALID,357,VALID,1.4625,
2012-08-11, 15:46:05,VALID,1003.83,VALID,0,VALID,83.9024,VALID,158.29,VALID,26.7239,VALID,344,VALID,0.836328,
2012-08-11, 15:47:05,VALID,1003.85,VALID,0,VALID,83.2235,VALID,162.61,VALID,26.7414,VALID,342,VALID,1.60508,
2012-08-11, 15:48:05,VALID,1003.84,VALID,0,VALID,84.3754,VALID,166.604,VALID,26.7414,VALID,341,VALID,0.760938,
2012-08-11, 15:49:05,VALID,1003.83,VALID,0,VALID,83.3455,VALID,169.213,VALID,26.7394,VALID,353,VALID,1.10781,
2012-08-11, 15:50:05,VALID,1003.85,VALID,0,VALID,84.0321,VALID,170.598,VALID,26.7804,VALID,356,VALID,1.66289,
2012-08-11, 15:51:05,VALID,1003.84,VALID,0,VALID,82.4224,VALID,169.946,VALID,26.7804,VALID,345,VALID,1.51094,
2012-08-11, 15:52:05,VALID,1003.84,VALID,0,VALID,82.7199,VALID,168.153,VALID,26.7804,VALID,351,VALID,1.11211,
2012-08-11, 15:53:05,VALID,1003.85,VALID,0,VALID,82.0868,VALID,167.338,VALID,26.7804,VALID,359,VALID,1.41836,
2012-08-11, 15:54:05,VALID,1003.86,VALID,0,VALID,82.6589,VALID,168.071,VALID,26.8193,VALID,346,VALID,1.2082,
2012-08-11, 15:55:05,VALID,1003.82,VALID,0,VALID,83.1929,VALID,169.702,VALID,26.8388,VALID,7,VALID,0.833203,
2012-08-11, 15:56:05,VALID,1003.83,VALID,0,VALID,82.1402,VALID,170.598,VALID,26.8193,VALID,348,VALID,1.26602,
2012-08-11, 15:57:05,VALID,1003.83,VALID,0,VALID,82.5292,VALID,170.68,VALID,26.7609,VALID,352,VALID,1.55977,
2012-08-11, 15:58:05,VALID,1003.83,VALID,0,VALID,84.1084,VALID,169.783,VALID,26.7998,VALID,8,VALID,0.619141,
2012-08-11, 15:59:05,VALID,1003.82,VALID,0,VALID,83.7651,VALID,167.827,VALID,26.7998,VALID,14,VALID,0.664063,
2012-08-11, 16:00:05,VALID,1003.8,VALID,0,VALID,82.6894,VALID,165.3,VALID,26.7998,VALID,346,VALID,0.685938,
2012-08-11, 16:01:05,VALID,1003.81,VALID,0,VALID,82.0868,VALID,162.203,VALID,26.7998,VALID,351,VALID,1.38516,
2012-08-11, 16:02:05,VALID,1003.85,VALID,0,VALID,83.3531,VALID,158.861,VALID,26.7804,VALID,356,VALID,0.806641,
2012-08-11, 16:03:05,VALID,1003.87,VALID,0,VALID,83.8567,VALID,155.356,VALID,26.7804,VALID,357,VALID,1.09727,
2012-08-11, 16:04:05,VALID,1003.86,VALID,0,VALID,83.1167,VALID,152.259,VALID,26.7414,VALID,345,VALID,1.01094,
2012-08-11, 16:05:05,VALID,1003.86,VALID,0,VALID,83.9635,VALID,149.976,VALID,26.7024,VALID,356,VALID,1.14023,
2012-08-11, 16:06:05,VALID,1003.89,VALID,0,VALID,83.9024,VALID,150.71,VALID,26.7024,VALID,325,VALID,0.260156,
2012-08-11, 16:07:05,VALID,1003.87,VALID,0,VALID,84.3907,VALID,148.998,VALID,26.7414,VALID,326,VALID,0.341797,
2012-08-11, 16:08:05,VALID,1003.86,VALID,0,VALID,84.6806,VALID,145.819,VALID,26.7609,VALID,326,VALID,0.289063,
2012-08-11, 16:09:05,VALID,1003.88,VALID,0,VALID,83.7041,VALID,143.13,VALID,26.7998,VALID,324,VALID,0.261719,
2012-08-11, 16:10:05,VALID,1003.85,VALID,0,VALID,84.2228,VALID,140.277,VALID,26.8368,VALID,324,VALID,0,
2012-08-11, 16:11:05,VALID,1003.82,VALID,0,VALID,83.9711,VALID,138.158,VALID,26.8952,VALID,324,VALID,0,
2012-08-11, 16:12:05,VALID,1003.83,VALID,0,VALID,83.9482,VALID,136.283,VALID,26.9362,VALID,324,VALID,0.457031,
2012-08-11, 16:13:05,VALID,1003.78,VALID,0,VALID,83.2387,VALID,134.734,VALID,26.9537,VALID,315,VALID,0,
2012-08-11, 16:14:05,VALID,1003.81,VALID,0,VALID,82.247,VALID,133.186,VALID,26.9732,VALID,351,VALID,0.676562,
2012-08-11, 16:15:05,VALID,1003.79,VALID,0,VALID,82.8802,VALID,131.637,VALID,26.9557,VALID,3,VALID,0.630859,
2012-08-11, 16:16:04,VALID,1003.75,VALID,0,VALID,82.5369,VALID,130.251,VALID,26.8973,VALID,3,VALID,0.437109,
2012-08-11, 16:17:04,VALID,1003.79,VALID,0,VALID,83.4523,VALID,128.621,VALID,26.8757,VALID,3,VALID,0.328516,
2012-08-11, 16:18:04,VALID,1003.8,VALID,0,VALID,83.6278,VALID,126.828,VALID,26.8993,VALID,3,VALID,0.410156,
2012-08-11, 16:19:04,VALID,1003.79,VALID,0,VALID,84.8332,VALID,124.383,VALID,26.9167,VALID,2,VALID,0.235547,
2012-08-11, 16:37:05,VALID,1004.17,VALID,0,VALID,82.8191,VALID,122.997,VALID,26.9342,VALID,276,VALID,0.555859,
2012-08-11, 16:38:05,VALID,1004.19,VALID,0,VALID,82.0257,VALID,128.703,VALID,26.8952,VALID,292,VALID,1.2375,
2012-08-11, 16:39:05,VALID,1004.18,VALID,0,VALID,82.1173,VALID,132.044,VALID,26.8778,VALID,314,VALID,0.978906,
2012-08-11, 16:40:05,VALID,1004.2,VALID,0,VALID,82.369,VALID,135.142,VALID,26.8563,VALID,300,VALID,0.671484,
2012-08-11, 16:41:05,VALID,1004.19,VALID,0,VALID,82.8954,VALID,137.343,VALID,26.8757,VALID,277,VALID,0.437109,
2012-08-11, 16:42:05,VALID,1004.17,VALID,0,VALID,83.2311,VALID,139.543,VALID,26.9342,VALID,277,VALID,0.227734,
2012-08-11, 16:43:05,VALID,1004.2,VALID,0,VALID,82.2317,VALID,139.788,VALID,26.9342,VALID,9,VALID,0.621094,
2012-08-11, 16:44:05,VALID,1004.19,VALID,0,VALID,82.1096,VALID,139.788,VALID,27.0142,VALID,312,VALID,0.433594,
2012-08-11, 16:45:05,VALID,1004.19,VALID,0,VALID,81.8121,VALID,140.684,VALID,27.0531,VALID,310,VALID,0.317578,
2012-08-11, 16:46:05,VALID,1004.19,VALID,0,VALID,81.9952,VALID,142.152,VALID,27.0921,VALID,13,VALID,0.586719,
2012-08-11, 16:47:05,VALID,1004.17,VALID,0,VALID,81.7053,VALID,143.374,VALID,27.1311,VALID,288,VALID,0.769141,
2012-08-11, 16:48:05,VALID,1004.16,VALID,0,VALID,81.4993,VALID,145.167,VALID,27.1311,VALID,304,VALID,0.319531,
2012-08-11, 16:49:05,VALID,1004.16,VALID,0,VALID,81.0569,VALID,158.127,VALID,27.129,VALID,313,VALID,0.663281,
2012-08-11, 16:50:05,VALID,1004.16,VALID,0,VALID,81.6824,VALID,162.936,VALID,27.1485,VALID,269,VALID,0.619141,
2012-08-11, 16:51:05,VALID,1004.14,VALID,0,VALID,81.5527,VALID,144.515,VALID,27.1875,VALID,274,VALID,0.153125,
2012-08-11, 16:52:05,VALID,1004.17,VALID,0,VALID,80.7364,VALID,140.032,VALID,27.168,VALID,303,VALID,0.613672,
2012-08-11, 16:53:05,VALID,1004.18,VALID,0,VALID,81.2247,VALID,131.148,VALID,27.2264,VALID,318,VALID,0.302344,
2012-08-11, 16:54:05,VALID,1004.2,VALID,0,VALID,80.9501,VALID,125.279,VALID,27.2675,VALID,336,VALID,0.701953,
